[[{"header":{"parameterUnit":"m.s-1","parameterCategory":1,"la1":30.2991,"la2":30.254,"lo1":-89.0895,"lo2":-89.0444,"dy":0.0017,"dx":0.0017,"nx":28,"ny":28,"refTime":"2024-05-24T03:00:00:Z","depth":0,"parameterNumber":2,"parameterNumberName":"U-component_of_WINDS"},"data":[0,0,0,0,0,0,0,0,0,0,0,0,0,0,0,0,0,0,0,0,0,0,0,0,0,0,0,0,0,0,0,0,0,0,0,0,0,0,0,0,0,0,0,0,0,0,0,0,0,0,0,0,0,0,0,0,0,0,-2.5008,-2.5006,0,-2.4849,-2.4847,-2.4846,-2.473,-2.4729,-2.4728,-2.4727,-2.4561,-2.4557,-2.4554,0,0,0,0,0,0,0,0,0,0,0,0,0,-2.5207,-2.5204,-2.5008,-2.5006,-2.5004,-2.485,-2.4847,-2.4845,-2.473,-2.4729,-2.4727,-2.4726,-2.4562,-2.4558,-2.4553,0,0,0,0,0,0,0,0,0,0,0,0,0,-2.5092,-2.5203,-2.5008,-2.4928,-2.4919,-2.485,-2.4847,-2.4845,-2.473,-2.4729,-2.4727,-2.4726,-2.4563,-2.4558,-2.4553,-2.455,0,0,-2.4537,-2.4535,0,0,0,0,0,0,0,0,-2.5099,-2.5085,-2.4942,-2.4933,-2.4923,-2.4808,-2.4857,-2.4746,-2.473,-2.4802,-2.4727,-2.4725,-2.4644,-2.4632,-2.4605,-2.4542,-2.4535,-2.4536,-2.4533,-2.4531,-2.4529,0,0,0,0,0,0,0,-2.5107,-2.5091,-2.4945,-2.494,-2.4928,-2.4899,-2.4881,-2.4835,-2.4733,-2.4795,-2.4787,-2.477,-2.4638,-2.4611,-2.46,-2.4533,-2.4536,-2.4532,-2.4529,-2.4527,-2.4458,-2.446,0,0,0,0,0,0,-2.5128,-2.5098,-2.495,-2.494,-2.5009,-2.4896,-2.4876,-2.4846,-2.4733,-2.4714,-2.4771,-2.4765,-2.462,-2.4607,-2.4594,-2.4582,-2.4531,-2.4526,-2.4523,-2.4457,-2.4459,-2.446,0,0,0,0,0,0,-2.5133,-2.5116,-2.4956,-2.5017,-2.4994,-2.4894,-2.4862,-2.4844,-2.4816,-2.4715,-2.4695,-2.4761,-2.4619,-2.4602,-2.4562,-2.4575,-2.4524,-2.4519,-2.4456,-2.4458,-2.4459,-2.456,0,0,0,0,0,0,-2.5139,-2.5118,-2.5117,-2.5018,-2.4992,-2.4928,-2.4863,-2.4842,-2.4808,-2.4798,-2.4701,-2.4683,-2.4616,-2.457,-2.4557,-2.4567,-2.4515,-2.4454,-2.4456,-2.4459,-2.4555,-2.4565,-2.4574,0,0,0,0,0,-2.5146,-2.5151,-2.5117,-2.51,-2.4988,-2.4929,-2.4914,-2.4838,-2.4809,-2.4806,-2.4741,-2.4686,-2.4577,-2.4567,-2.4551,-2.456,-2.4453,-2.4456,-2.4459,-2.4551,-2.4563,-2.4574,0,0,0,0,0,0,-2.5252,-2.5136,-2.5098,-2.5071,-2.5011,-2.491,-2.4904,-2.4854,-2.48,-2.4793,-2.4699,-2.4678,-2.4648,-2.46,-2.4592,-2.4551,-2.4507,-2.4507,-2.4583,-2.4594,-2.4604,-2.4615,-2.451,0,0,0,0,0,-2.5273,-2.5236,-2.5136,-2.5122,-2.5094,-2.5005,-2.4976,-2.4923,-2.4856,-2.483,-2.4762,-2.4699,-2.465,-2.462,-2.4569,-2.4548,-2.4524,-2.4546,-2.4556,-2.4564,-2.4564,-2.4549,-2.4557,-2.447,-2.447,-2.447,0,0,-2.5314,-2.5246,-2.5228,-2.5141,-2.5088,-2.5051,-2.4984,-2.4947,-2.4918,-2.4824,-2.4782,-2.4731,-2.4654,-2.4624,-2.4607,-2.4582,-2.4583,-2.4568,-2.4575,-2.4571,-2.4553,-2.4561,-2.4568,-2.4472,-2.4472,-2.4471,0,0,-2.537,-2.5316,-2.5297,-2.5247,-2.5168,-2.5109,-2.5105,-2.5011,-2.4974,-2.4931,-2.486,-2.4823,-2.4741,-2.4689,-2.4652,-2.469,-2.4637,-2.4676,-2.4725,-2.4711,-2.4718,-2.4723,-2.4736,-2.4742,-2.4678,-2.4678,-2.4678,0,-2.5431,-2.5373,-2.5294,-2.5262,-2.5225,-2.514,-2.512,-2.5074,-2.4983,-2.4959,-2.4934,-2.4829,-2.4771,-2.4727,-2.4737,-2.471,-2.4701,-2.4686,-2.4724,-2.4728,-2.4732,-2.4743,-2.4748,-2.4683,-2.4682,-2.4682,-2.4681,0,-2.5451,-2.5412,-2.5407,-2.5322,-2.5285,-2.5259,-2.5175,-2.5147,-2.5098,-2.5041,-2.4998,-2.4926,-2.486,-2.4845,-2.4796,-2.4794,-2.4782,-2.4742,-2.4696,-2.4747,-2.4756,-2.4759,-2.469,-2.4689,-2.4687,-2.4686,0,0,-2.5568,-2.5441,-2.544,-2.5401,-2.5309,-2.5276,-2.5247,-2.5183,-2.516,-2.51,-2.5072,-2.5005,-2.4967,-2.4926,-2.487,-2.4858,-2.4891,-2.4818,-2.4815,-2.4833,-2.4884,-2.4914,-2.492,-2.4856,-2.4857,-2.4857,-2.489,0,-2.5609,-2.5552,-2.548,-2.5447,-2.5409,-2.5328,-2.5302,-2.5242,-2.5189,-2.5148,-2.5088,-2.5042,-2.4996,-2.497,-2.4955,-2.4891,-2.49,-2.4887,-2.4827,-2.4826,-2.4848,-2.4924,-2.4955,-2.499,-2.4893,-2.4893,-2.4893,0,-2.5648,-2.5594,-2.5558,-2.5469,-2.545,-2.5428,-2.5364,-2.5327,-2.5257,-2.5219,-2.5173,-2.5113,-2.5077,-2.5038,-2.4985,-2.4978,-2.495,-2.4915,-2.4914,-2.4904,-2.4862,-2.4915,-2.4999,-2.5004,-2.4898,-2.4898,-2.4897,0,-2.5736,-2.5654,-2.5621,-2.559,-2.5486,-2.5472,-2.5428,-2.5357,-2.5323,-2.5267,-2.5243,-2.5183,-2.515,-2.5104,-2.503,-2.5009,-2.4985,-2.494,-2.4951,-2.4953,-2.4948,-2.4949,-2.5027,-2.4933,-2.4933,-2.4933,-2.4933,0,-2.5788,-2.5769,-2.5659,-2.5639,-2.5614,-2.5532,-2.551,-2.5458,-2.5396,-2.5363,-2.529,-2.5261,-2.5165,-2.5124,-2.5065,-2.503,-2.5016,-2.4983,-2.4967,-2.4989,-2.4993,-2.4967,-2.4963,-2.4934,-2.4934,-2.4933,-2.4933,0,-2.5881,-2.5807,-2.5766,-2.5672,-2.5647,-2.5633,-2.5551,-2.5528,-2.5471,-2.5431,-2.5417,-2.5326,-2.5275,-2.5196,-2.5121,-2.5082,-2.5055,-2.5031,-2.5079,-2.507,-2.5085,-2.5084,-2.5148,-2.5151,-2.5057,-2.5058,-2.5059,0,-2.5919,-2.5902,-2.5806,-2.5779,-2.5738,-2.5696,-2.5662,-2.558,-2.5547,-2.5467,-2.5453,-2.5396,-2.5346,-2.5267,-2.5194,-2.5136,-2.5108,-2.5134,-2.5098,-2.512,-2.5107,-2.5108,-2.5105,-2.5142,-2.5144,-2.5145,-2.5146,0,-2.5993,-2.5957,-2.5911,-2.5852,-2.5813,-2.5762,-2.5708,-2.569,-2.5596,-2.5563,-2.551,-2.5471,-2.5395,-2.5338,-2.527,-2.5223,-2.5169,-2.5158,-2.5157,-2.5178,-2.5207,-2.519,-2.5101,-2.5157,-2.5156,-2.5155,-2.5154,-2.5154,-2.6058,-2.6039,-2.5969,-2.5919,-2.587,-2.5821,-2.5795,-2.5735,-2.5689,-2.5621,-2.5576,-2.5525,-2.5456,-2.5359,-2.5315,-2.5273,-2.525,-2.5249,-2.5249,-2.5249,-2.5257,-2.5215,-2.5261,-2.526,-2.526,-2.526,-2.5259,0,-2.6127,-2.6078,-2.6034,-2.596,-2.5921,-2.5875,-2.5813,-2.5783,-2.574,-2.568,-2.5633,-2.5571,-2.5517,-2.544,-2.5379,-2.5361,-2.5334,-2.5348,-2.5347,-2.5337,-2.5281,-2.5288,-2.537,-2.537,-2.537,-2.537,-2.537,-2.537,-2.6158,-2.6124,-2.608,-2.602,-2.597,-2.5921,-2.5889,-2.5843,-2.5795,-2.5731,-2.5685,-2.5636,-2.5569,-2.5503,-2.5451,-2.543,-2.541,-2.5431,-2.5402,-2.5351,-2.5341,-2.5331,-2.5337,-2.5428,-2.5428,-2.546,-2.5461,-2.5461]},{"header":{"parameterUnit":"m.s-1","parameterCategory":1,"la1":30.2991,"la2":30.254,"lo1":-89.0895,"lo2":-89.0444,"dy":0.0017,"dx":0.0017,"nx":28,"ny":28,"refTime":"2024-05-24T03:00:00:Z","depth":0,"parameterNumber":3,"parameterNumberName":"V-component_of_WINDS"},"data":[0,0,0,0,0,0,0,0,0,0,0,0,0,0,0,0,0,0,0,0,0,0,0,0,0,0,0,0,0,0,0,0,0,0,0,0,0,0,0,0,0,0,0,0,0,0,0,0,0,0,0,0,0,0,0,0,0,0,2.5677,2.5677,0,2.5656,2.5655,2.5655,2.5677,2.5678,2.5679,2.5679,2.5652,2.5651,2.5649,0,0,0,0,0,0,0,0,0,0,0,0,0,2.5734,2.5732,2.5677,2.5677,2.5677,2.5656,2.5655,2.5655,2.5677,2.5678,2.5679,2.568,2.5653,2.5651,2.5649,0,0,0,0,0,0,0,0,0,0,0,0,0,2.571,2.5732,2.5677,2.5685,2.5686,2.5656,2.5655,2.5655,2.5676,2.5678,2.5679,2.568,2.5653,2.5651,2.5649,2.5608,0,0,2.5642,2.5641,0,0,0,0,0,0,0,0,2.5711,2.5708,2.5684,2.5685,2.5685,2.567,2.5665,2.5639,2.5676,2.568,2.5679,2.5681,2.5657,2.5654,2.5647,2.5607,2.5606,2.5641,2.564,2.5639,2.5638,0,0,0,0,0,0,0,2.5713,2.5709,2.5669,2.5684,2.5684,2.5688,2.5687,2.566,2.5661,2.568,2.5681,2.5678,2.5657,2.5649,2.5647,2.5606,2.5641,2.5639,2.5638,2.5637,2.5532,2.553,0,0,0,0,0,0,2.5714,2.571,2.5669,2.5668,2.5702,2.5686,2.5684,2.5674,2.5661,2.5661,2.5677,2.568,2.5653,2.5649,2.5646,2.5598,2.5639,2.5637,2.5636,2.5533,2.5531,2.553,0,0,0,0,0,0,2.5716,2.5711,2.567,2.569,2.5685,2.5684,2.5672,2.5673,2.5665,2.566,2.566,2.567,2.5653,2.5649,2.5618,2.5597,2.5636,2.5634,2.5535,2.5533,2.5531,2.5502,0,0,0,0,0,0,2.5717,2.5711,2.5696,2.5689,2.5684,2.5644,2.5671,2.5671,2.5661,2.5664,2.5652,2.5652,2.5654,2.5621,2.5616,2.5595,2.5632,2.5537,2.5534,2.5531,2.5505,2.55,2.5495,0,0,0,0,0,2.5719,2.5688,2.5696,2.5691,2.5666,2.5643,2.5639,2.5644,2.566,2.5645,2.5642,2.5652,2.5601,2.5618,2.5612,2.559,2.5538,2.5535,2.5532,2.5507,2.5501,2.5495,0,0,0,0,0,0,2.5691,2.5687,2.5696,2.5662,2.5653,2.5647,2.5628,2.5637,2.5622,2.5625,2.563,2.5627,2.5595,2.5589,2.5608,2.5551,2.5572,2.5567,2.5555,2.5549,2.5544,2.5546,2.563,0,0,0,0,0,2.5681,2.5664,2.5661,2.5632,2.5627,2.5628,2.5618,2.5623,2.5613,2.5609,2.5603,2.5592,2.5573,2.5561,2.5543,2.5505,2.5502,2.5487,2.5482,2.5477,2.5473,2.5452,2.5445,2.5519,2.5519,2.5519,0,0,2.566,2.5656,2.5645,2.5626,2.562,2.5601,2.5625,2.5603,2.5589,2.5605,2.5576,2.5572,2.5559,2.5524,2.5508,2.5519,2.5452,2.5473,2.547,2.5468,2.5448,2.5441,2.5435,2.5517,2.5518,2.5518,0,0,2.5612,2.5608,2.5583,2.5576,2.5567,2.5568,2.5562,2.5555,2.5553,2.5525,2.5536,2.5519,2.5487,2.5478,2.5469,2.5418,2.5427,2.5412,2.5385,2.5365,2.5359,2.5354,2.5336,2.5329,2.5408,2.5408,2.5408,0,2.5587,2.556,2.5568,2.5547,2.5538,2.5554,2.5528,2.5521,2.5505,2.5498,2.551,2.5471,2.5464,2.5427,2.5415,2.5407,2.54,2.5414,2.536,2.5354,2.535,2.5333,2.5326,2.5407,2.5407,2.5407,2.5407,0,2.5529,2.5511,2.5492,2.5479,2.5468,2.5444,2.5447,2.5435,2.5441,2.544,2.5411,2.5403,2.5385,2.5376,2.5381,2.534,2.5347,2.5359,2.538,2.5341,2.5325,2.5318,2.5404,2.5405,2.5405,2.5406,0,0,2.5462,2.5455,2.5448,2.5443,2.5434,2.5419,2.5396,2.538,2.5369,2.5358,2.5338,2.5311,2.5323,2.5313,2.5316,2.5299,2.526,2.5313,2.5313,2.5303,2.5214,2.5205,2.5197,2.5266,2.5265,2.5264,2.5215,0,2.5414,2.5376,2.5383,2.5345,2.5328,2.5343,2.5323,2.5314,2.5313,2.5298,2.5296,2.5277,2.5294,2.5288,2.5271,2.5268,2.5242,2.5272,2.5246,2.5245,2.5249,2.5189,2.5179,2.5133,2.5209,2.5208,2.5207,0,2.5353,2.5342,2.5303,2.5298,2.5291,2.5273,2.5259,2.5244,2.5234,2.5235,2.5224,2.5232,2.5207,2.523,2.5196,2.5216,2.5206,2.5203,2.5201,2.5199,2.5224,2.5184,2.5119,2.5112,2.5197,2.5198,2.5199,0,2.5308,2.5283,2.5257,2.5252,2.5245,2.5232,2.5228,2.522,2.521,2.5198,2.5191,2.5175,2.5166,2.5153,2.5155,2.5171,2.5121,2.5143,2.512,2.5119,2.5108,2.5108,2.504,2.5102,2.5102,2.5102,2.5102,0,2.5254,2.5229,2.5237,2.5221,2.5193,2.5201,2.5173,2.5171,2.5164,2.5147,2.5159,2.5142,2.5146,2.5129,2.5131,2.5103,2.5098,2.5097,2.5098,2.5096,2.5096,2.5089,2.5093,2.51,2.5101,2.5101,2.5101,0,2.5199,2.5203,2.5175,2.5172,2.517,2.515,2.5147,2.5131,2.5132,2.5109,2.5105,2.5105,2.5085,2.5087,2.5064,2.5066,2.5031,2.5035,2.5034,2.5035,2.5012,2.5014,2.4936,2.4926,2.4995,2.4994,2.4994,0,2.5164,2.5146,2.5141,2.5131,2.5127,2.511,2.5101,2.5108,2.5097,2.5086,2.5071,2.5053,2.5039,2.5008,2.5005,2.4988,2.4992,2.4966,2.4989,2.4988,2.4991,2.4992,2.499,2.4961,2.496,2.4959,2.4959,0,2.5101,2.5104,2.5091,2.5079,2.5067,2.5057,2.5048,2.5039,2.5045,2.5032,2.5014,2.5003,2.4981,2.4963,2.4947,2.4942,2.4951,2.4952,2.4945,2.4943,2.4944,2.4943,2.5022,2.4953,2.4954,2.4954,2.4954,2.4955,2.5055,2.504,2.5034,2.5019,2.5014,2.5005,2.499,2.499,2.4975,2.4959,2.4964,2.4943,2.4934,2.4914,2.4907,2.489,2.4899,2.489,2.4887,2.4885,2.4883,2.4947,2.4887,2.4887,2.4887,2.4887,2.4887,0,2.4993,2.4991,2.4977,2.4965,2.4953,2.4964,2.4955,2.4944,2.4926,2.4918,2.4904,2.4883,2.4866,2.4862,2.4845,2.4832,2.4836,2.4827,2.4828,2.4827,2.4875,2.4882,2.4825,2.4825,2.4825,2.4825,2.4825,2.4825,2.4959,2.4934,2.4937,2.4909,2.4907,2.4888,2.4881,2.4873,2.4867,2.4843,2.483,2.4828,2.4822,2.4805,2.4789,2.4788,2.4782,2.4772,2.4772,2.4817,2.4823,2.4829,2.4836,2.477,2.477,2.4726,2.4725,2.4725]}]]